This demonstration page uses our WeatherBlox Daily Observations layout. Learn more.

Left ArrowRight Arrow

Hourly Observations for February 20, 2018

Temp ( °F °C ) Dew Point ( °F °C ) Humidity (%) Winds ( mph kmh ) Pressure ( in mb ) Visibility ( mi km ) Precip ( " mm )
12:37 am 00:37 Cloudy with Light Snow 13 -10.6 10 -12.2 88 88 NNW 18 30 30.06 1018 2 3 0.00 0.03
12:53 am 00:53 Cloudy with Light Snow 13 -10.6 10 -12.2 88 88 NNW 17 28 29.98 1015 2 3 0.00 0.03
1:11 am 01:11 Cloudy with Light Snow 13 -10.6 10 -12.2 88 88 N 17 28 30.06 1018 2 3 0.00 0.03
1:40 am 01:40 Cloudy with Light Snow 12 -11 9 -13 85 85 N 16 26 30.09 1019 2 3 0.00 0.00
1:48 am 01:48 Cloudy with Light Snow 12 -11 9 -13 85 85 N 18 30 30.09 1019 2 3 0.00 0.00
1:53 am 01:53 Cloudy with Light Snow 13 -10.6 9 -12.8 84 84 NNW 18 30 30.00 1016 2 3 0.00 0.03
2:00 am 02:00 Cloudy with Light Snow 12 -11 9 -13 85 85 N 14 22 30.09 1019 2 3 0.00 0.00
2:21 am 02:21 Cloudy with Light Snow 13 -10.6 9 -12.8 84 84 N 17 28 30.09 1019 3 5 0.00 0.03
2:53 am 02:53 Cloudy with Light Snow 13 -10.6 8 -13.3 81 81 NNW 17 28 30.00 1016 8 13 0.00 0.03
3:11 am 03:11 Cloudy 13 -10.6 7 -13.9 77 77 N 15 24 30.09 1019 10 16 0.00 0.03
3:53 am 03:53 Cloudy 13 -10.6 7 -13.9 77 77 NNW 16 26 30.02 1017 10 16 0.00 0.03
4:53 am 04:53 Cloudy 13 -10.6 6 -14.4 74 74 NNW 17 28 30.06 1018 10 16 0.00 0.03
5:53 am 05:53 Cloudy 11 -11.7 5 -15 77 77 NNW 20 31 30.07 1018 9 14 0.00 0.03
6:53 am 06:53 Partly Cloudy 9 -12.8 2 -16.7 73 73 NNW 17 28 30.13 1020 10 16 0.00 0.00
7:53 am 07:53 Mostly Cloudy 9 -12.8 1 -17.2 70 70 NNW 20 31 30.17 1022 10 16 0.00 0.00
8:53 am 08:53 Mostly Cloudy 10 -12.2 1 -17.2 67 67 NNW 24 39 30.20 1023 10 16 0.00 0.00
9:53 am 09:53 Mostly Sunny 11 -11.7 2 -16.7 67 67 NNW 23 37 30.22 1023 10 16 0.00 0.00
10:53 am 10:53 Sunny 13 -10.6 3 -16.1 64 64 N 23 37 30.23 1024 10 16 0.00 0.00
11:53 am 11:53 Sunny 14 -10 4 -15.6 64 64 NNW 23 37 30.22 1024 10 16 0.00 0.00
12:53 pm 12:53 Sunny 16 -8.9 5 -15 62 62 NNW 20 31 30.25 1025 10 16 0.00 0.00
1:53 pm 13:53 Mostly Sunny 17 -8.3 5 -15 59 59 N 15 24 30.28 1025 10 16 0.00 0.00
2:53 pm 14:53 Sunny 19 -7.2 6 -14.4 57 57 NNW 21 33 30.27 1025 10 16 0.00 0.00
3:53 pm 15:53 Sunny 19 -7.2 6 -14.4 57 57 N 20 31 30.31 1027 10 16 0.00 0.00
4:53 pm 16:53 Sunny 18 -7.8 5 -15 57 57 N 20 31 30.34 1027 10 16 0.00 0.00
5:53 pm 17:53 Sunny 16 -8.9 4 -15.6 59 59 N 14 22 30.38 1029 10 16 0.00 0.00
6:53 pm 18:53 Clear 14 -10 5 -15 67 67 NNW 12 19 30.42 1030 10 16 0.00 0.00
7:53 pm 19:53 Clear 12 -11.1 3 -16.1 67 67 N 13 20 30.45 1031 10 16 0.00 0.00
8:53 pm 20:53 Clear 11 -11.7 3 -16.1 70 70 N 14 22 30.47 1032 10 16 0.00 0.00
9:53 pm 21:53 Clear 10 -12.2 2 -16.7 69 69 N 12 19 30.50 1033 10 16 0.00 0.00
10:53 pm 22:53 Clear 9 -12.8 2 -16.7 73 73 N 12 19 30.53 1034 10 16 0.00 0.00
11:53 pm 23:53 Clear 8 -13.3 1 -17.2 73 73 N 5 7 30.57 1035 10 16 0.00 0.00

Powered by AerisWeather